Regional Weather Roundup
Issued by NWS

Home | Current Version | Previous Version | Text Only | Print | Product List | Glossary On
Versions: 1 2 3 4 5 6 7 8 9 10 11 12 13 14 15 16 17 18 19 20 21 22 23 24 25 26 27 28 29 30 31 32 33 34 35 36 37 38 39 40 41 42 43 44 45 46 47 48 49 50
000
ASCA42 TJSJ 121511
RWRPR
PUERTO RICO/U.S. VIRGIN ISLANDS HOURLY WEATHER ROUNDUP
NATIONAL WEATHER SERVICE SAN JUAN PR
1100 AM AST SAT JUL 12 2014

PRZ001-004-121600-
PUERTO RICO

CITY           SKY/WX    TMP DP  RH WIND       PRES   REMARKS
SAN JUAN LMM   MOSUNNY   90  73  58 NE14      30.09S HX  98
PONCE          MOSUNNY   90  72  55 SE12G21   30.00S HX  96
AGUADILLA        N/A     84  73  70 E18       30.10S HX  91
CEIBA          CLOUDY    88  72  58 E9        30.12R HX  94
$$

PRZ006-007-121600-
U.S. VIRGIN ISLANDS

CITY           SKY/WX    TMP DP  RH WIND       PRES   REMARKS
CHARLOTTE AMA  MOSUNNY   90  73  58 E9G20     30.08S HX  98
CHRISTIANSTED  PTSUNNY   90  72  55 E21       30.08S HX  96
$$

HOURLY WEATHER ROUNDUP FOR THE NEWS MEDIA

CITY           SKY/WX    TMP DP  RH WIND       PRES   REMARKS
MIAMI          PTSUNNY   83  75  77 E10       30.13R HX  90
ORLANDO        MOSUNNY   87  75  67 E5        30.16S HX  96
NEW YORK       PTSUNNY   80  60  50 S6        30.24S
NEWARK         MOSUNNY   84  60  44 W6        30.22S
CHICAGO        LGT RAIN  71  67  87 S7        30.05R FOG
HARTFORD       SUNNY     80  58  46 W6        30.21F
BOSTON         MOSUNNY   76  61  59 SE7       30.21F
DALLAS         MOSUNNY   86  62  44 SW6       30.18R
PHILADELPHIA   MOSUNNY   80  64  58 CALM      30.22S


USA.gov is the U.S. government's official web portal to all federal, state and local government web resources and services.